www.pogodaiklimat.ru

Погода и климат >> Архив погоды >> Россия >> Якутия >> Анабар


ПОГОДА в Анабаре

  • Прогноз погоды в Анабаре
  • Монитор погоды в Анабаре

АРХИВ ПОГОДЫ в Анабаре

Время (UTC), дата Ветер
(напр.,м/с)
 
Видим.   Явления Облачность Т
(С)
Тd
(С)
f
(%)
Тe
(С)
Тes
(С)
Комфортность P
(гПа)
Po
(гПа)
Тmin
(С)
Tmax
(С)
R
(мм)
R24
(мм)
S
(см)
03 11.07 З 2 20 км 10/10 300 м
[Sc]
+11.8 +9.0 83 +11 +11 1010.1 1008.4
06 11.07 З 2 20 км 9/9 300 м
[Sc]
+13.1 +9.6 79 +12 +13 1010.8 1009.2
09 11.07 З 2 20 км 10/3 300 м
[Sc Ci fib]
+15.2 +11.1 77 +15 +18 1010.7 1009.1
12 11.07 В 5 10 км слаб. дождь 10/0
[Ac As]
+12.1 +10.2 88 +10 +10 1008.8 1007.2 +15.6 0.0
15 11.07 В 5 10 км слаб. дождь 10/3 300 м
[Sc As op]
+9.8 +9.6 99 +6 +6 1009.3 1007.7
18 11.07 СЗ 3 20 км в посл. час дождь 10/3 300 м
[Sc As op]
+9.2 +9.0 99 +7 +7 1008.8 1007.2
21 11.07 С 5 4000 м слаб. морось 10/10 300 м
[St]
+7.8 +7.6 99 +4 +4 1008.6 1007.0
00 12.07 С 4 4000 м слаб. морось 10/10 300 м
[St]
+8.4 +8.0 97 +5 +5 1008.0 1006.4 +9.2 3
03 12.07 З 6 20 км {морось} 9/9 300 м
[Sc]
+11.5 +9.1 85 +9 +9 1008.1 1006.5
06 12.07 З 7 20 км {морось} 10/10 300 м
[Sc]
+11.1 +7.6 79 +8 +8 1008.9 1007.3
09 12.07 З 9-10
{11}
20 км {ливн. осадки} 10/10 300 м
[Cb cap]
+10.7 +9.1 90 +7 +7 1008.3 1006.7
12 12.07 С 10-11
{12}
20 км {ливн. осадки} 10/10 300 м
[Sc]
+9.3 +6.7 84 +5 +5 1008.8 1007.2 +11.7 0.3
15 12.07 З 8
{11}
20 км 4/4 300 м
[Sc]
+7.6 +5.1 84 +3 +3 1009.8 1008.2
18 12.07 СЗ 5 20 км 4/3 300 м
[Sc Ci fib]
+6.1 +5.2 94 +2 +2 1010.5 1008.9
21 12.07 З 3 20 км 8/1 300 м
[Sc Ci fib]
+5.8 +4.9 94 +2 +3 1011.1 1009.5
00 13.07 З 3 20 км 10/3 300 м
[Sc Ci fib]
+7.5 +5.7 88 +5 +7 1010.6 1009.0 +4.9
03 13.07 З 1 20 км 10/0
[Ac trans Ci fib]
+8.3 +6.1 86 +8 +13 1009.9 1008.3
06 13.07 З 1 20 км 10/0
[Ac trans Ci fib]
+10.9 +7.4 79 +11 +17 1009.4 1007.8
09 13.07 В 3 20 км 6/0
[Ac trans]
+12.0 +7.9 76 +10 +13 1008.8 1007.2
12 13.07 СВ 3 20 км 4/0
[Ac trans Ci fib]
+12.2 +8.4 78 +11 +12 1009.3 1007.7 +13.4
15 13.07 С 3 20 км 3/0
[Ac trans]
+9.0 +5.7 80 +7 +7 1010.2 1008.6
18 13.07 С 2 20 км ясно +7.0 +6.1 94 +5 +5 1010.5 1008.9
21 13.07 С 3 20 км ясно +6.7 +6.0 95 +3 +5 1011.4 1009.8
00 14.07 С 6 20 км ясно +7.9 +6.1 88 +4 +5 1012.3 1010.7 +6.0
03 14.07 З 7 20 км 3/3 300 м
[Sc]
+8.9 +6.3 84 +5 +6 1013.0 1011.4
06 14.07 З 7 20 км 3/0
[Ac cast]
+11.2 +7.5 78 +8 +10 1013.2 1011.6
09 14.07 С 6 20 км 3/3 300 м
[Sc]
+10.5 +7.4 81 +7 +8 1014.7 1013.1
12 14.07 С 7 20 км 6/6 300 м
[Sc]
+10.0 +6.1 77 +6 +6 1015.6 1014.0 +12.6
15 14.07 СВ 8
{10}
20 км 10/10 300 м
[Sc]
+8.5 +6.6 88 +4 +4 1016.3 1014.7
18 14.07 СЗ 6 20 км 3/3 300 м
[Sc]
+5.5 +5.0 97 0 0 1016.7 1015.1
21 14.07
{10}
20 км н/о +5.4 +5.2 99 -1 -1 1016.7 1015.1
00 15.07 СВ 8 20 км 4/4 300 м
[]
+7.5 +6.2 91 +2 +3 1017.1 1015.5 +5.0
03 15.07 З 8
{10}
20 км 8/5 300 м
[Sc Ci fib]
+9.7 +7.2 84 +6 +6 1017.0 1015.4
06 15.07 З 8
{11}
20 км 6/3 300 м
[Sc Ci fib]
+11.9 +8.3 79 +9 +10 1016.7 1015.1
09 15.07 З 8
{10}
20 км 4/3 300 м
[Sc Ci fib]
+12.9 +8.5 75 +10 +11 1016.6 1015.0
12 15.07 З 6 20 км 3/0
[Ci fib]
+13.4 +9.5 77 +11 +12 1016.4 1014.8 +13.7
15 15.07 З 3 20 км 3/0
[Ci fib]
+12.5 +10.0 85 +11 +11 1016.2 1014.6
18 15.07 З 2 20 км 3/0
[Ci fib]
+8.7 +8.5 99 +7 +7 1016.1 1014.5
21 15.07 З 1 20 км 10/0
[Ci fib]
+10.3 +9.1 92 +10 +11 1015.3 1013.7
00 16.07 Ю 2 20 км 10/0
[Ac trans Ci fib]
+11.8 +9.8 88 +11 +13 1014.8 1013.2 +8.6
03 16.07 Ю 1 20 км 10/0
[Ac trans Ci fib]
+14.2 +10.4 78 +15 +21 1013.8 1012.2
06 16.07 В 1 20 км 4/1 300 м
[Sc Ac trans]
+16.6 +11.4 71 +17 +24 1013.1 1011.5
09 16.07 В 4 20 км 6/3 300 м
[Cu Sc Cc]
+16.7 +11.2 70 +16 +18 1012.0 1010.4
12 16.07 В 10-11
{13}
20 км 10/0
[Ac As]
+12.6 +10.3 86 +9 +9 1012.1 1010.5 +16.8
15 16.07 В 8
{12}
20 км 9/4 300 м
[Sc Ac trans]
+9.4 +7.7 89 +5 +5 1013.3 1011.7
18 16.07 В 6 4000 м дымка 10/10 300 м
[St]
+4.2 +4.0 99 -1 -1 1014.8 1013.2
21 16.07 СВ 8
{10}
4000 м дымка 10/10 300 м
[St]
+3.7 +3.5 99 -3 -3 1016.6 1014.9
00 17.07 СВ 7 20 км 10/10 300 м
[Sc]
+3.1 +2.9 99 -3 -3 1019.3 1017.6 +2.3
03 17.07 СВ 7 20 км 10/10 300 м
[Sc]
+3.8 +3.1 95 -2 -2 1020.9 1019.2
06 17.07 СВ 7 20 км 6/4 300 м
[Sc Cc]
+4.5 +2.8 89 -1 -0 1022.7 1021.0
09 17.07 СВ 7 20 км ясно +17.2 +13.9 81 +16 +17 1024.4 1021.9
12 17.07 СВ 8
{10}
20 км ясно +7.0 +4.5 84 +2 +2 1024.9 1023.3 +8.0
15 17.07 С 7 4000 м дымка 10/10 300 м
[St]
+2.4 +2.1 98 -4 -4 1025.9 1024.2
18 17.07 В 5 4000 м дымка 10/10 300 м
[St]
+1.6 +1.3 98 -4 -4 1026.9 1025.2
21 17.07 С 4 4000 м дымка 10/10 300 м
[St]
+1.2 +0.9 98 -4 -4 1027.7 1026.0
00 18.07 СВ 5 4000 м дымка 10/9 300 м
[St]
+3.5 +2.8 95 -2 -2 1028.7 1027.0 +1.0

 

Местоположение метеостанции Анабар (Якутия, Россия): широта 73.22 долгота 113.50 высота над уровнем моря 13 м.

В архиве по умолчанию представлена погода в Анабаре за последнюю неделю. Архивные данные за месяц целиком и за предыдущие месяцы, начиная с января 2011 года, Вы можете получить, выбрав интересующий диапазон дат из раскрывающегося списка и нажав кнопку "Ввод!".


*Определитесь, кто Вы:
робот инопланетянин человек

Внимание! Время в таблицах - всемирное. Для получения местного времени необходимо прибавить поправку, которая равна 9 ч.

Смотрите также архив погоды в соседних городах и на ближайших метеорологических станциях:

Погода в Саскылахе (Якутия, Россия) (140 км)
Погода на Острове Преображения (Якутия, Россия) (162 км)
Погода на Усть-Оленеке (Якутия, Россия) (205 км)
Погода в Джалинде (Якутия, Россия) (344 км)
Погода в Тюмяти (Якутия, Россия) (363 км)
Погода в Хатанге (Красноярский край, Россия) (391 км)
Погода на Столб Острове (Якутия, Россия) (430 км)
Погода в Оленеке (Якутия, Россия) (526 км)
Погода на Мысе Быков (Якутия, Россия) (534 км)
Погода в Сухане (Якутия, Россия) (540 км)

Пояснения к столбцам:

Ветер - указаны скорость ветра в м/с - средняя за 10 мин, порывы в срок и между сроками (в фигурных скобках) и направление, откуда дует ветер: С - северный, СВ - северо-восточный, В - восточный, ЮВ - юго-восточный, Ю - южный, ЮЗ - юго-западный, З - западный, СЗ - северо-западный.
Видимость - горизонтальная дальность видимости в метрах или километрах. При видимости от 1 до 10 км при отсутствии осадков обычно наблюдается дымка, при ухудшении видимости до 1 км и менее - туман. В сухую погоду видимость может ухудшаться дымом, пылью или мглою.
Явления - указаны атмосферные явления, наблюдавшиеся в срок или в последний час перед сроком; фигурными скобками обозначены явления, наблюдавшиеся между сроками (за 1-3 часа до срока); квадратными скобками обозначены град или гололедные отложения с указанием их диаметра в мм.
Облачность - указаны через наклонную черту общая и нижняя облачность в баллах и высота нижней границы облаков в метрах; квадратными скобками обозначены формы облаков: Ci - перистые, Cs - перисто-слоистые, Cc - перисто-кучевые, Ac - высококучевые, As - высокослоистые, Sc - слоисто-кучевые, Ns - слоисто-дождевые, Cu - кучевые, Cb - кучево-дождевые. Подробнее классификацию облаков см. в Атласе облаков (PDF).
T - Температура воздуха - температура, измеренная на высоте 2 м над землей.
Td - Температура точки росы - температура, при понижении до которой содержащийся в воздухе водяной пар достигнет насыщения.
f - Относительная влажность воздуха - влажноcть воздуха, измеренная на высоте 2 м над землей.
Te - Эффективная температура - температура, которую ощущает одетый по сезону человек в тени. Характеристика душности погоды. При расчете учитывается влияние влажности воздуха и скорости ветра на теплоощущения человека.
Tes - Эффективная температура на солнце - температура, которую ощущает человек, с поправкой на солнечный нагрев. Характеристика знойности погоды. Зависит от высоты солнца над горизонтом, облачности и скорости ветра. Ночью, в пасмурную погоду, а также при ветре 12 м/с и более поправка равна нулю.
P - Атмосферное давление - приведенное к уровню моря атмосферное давление.
Po - Атмосферное давление - измеренное на уровне метеостанции атмосферное давление.
Tmin - Минимальная температура - минимум температуры воздуха на высоте 2 м над землей.
Tmax - Максимальная температура - максимум температуры воздуха на высоте 2 м над землей.
R - Количество осадков - Количество выпавших осадков за период времени, мм. При наведении курсора мыши на число - период времени, за который выпало указанное количество осадков.
R24 - Количество осадков - Количество выпавших осадков за 24 часа, мм.
S - Снежный покров - Высота снежного покрова, см. При наведении курсора мыши на число - состояние снежного покрова и степень покрытия местности в баллах.